Location: Winterland
(47.1574°N, 55.3067°W)
Time: 21:18:25
(UTC+00:00)

Tiangong - Pass Details

Date: 21 August 2022
Orbit: 377 x 382 km, 41.5° (Epoch: 27 September)

Event Time Altitude Azimuth Distance (km) Brightness Sun altitude
Rises 00:06:04 0° 255° (WSW) 2,238 2.4 -13.3°
Reaches altitude 10° 00:08:17 10° 243° (WSW) 1,385 1.0 -13.6°
Maximum altitude 00:11:01 28° 182° (S) 740 -1.0 -14.0°
Enters shadow 00:11:36 26° 160° (SSE) 780 -1.1 -14.1°
